Time,TemperatureF,DewpointF,PressureIn,WindDirection,WindDirectionDegrees,WindSpeedMPH,WindSpeedGustMPH,Humidity,HourlyPrecipIn,Conditions,Clouds,dailyrainin,SolarRadiationWatts/m^2,SoftwareType,DateUTC
2013-03-03 00:00:00,22.9,20.9,29.78,WSW,237,3.5,3.5,92,0.01,-SN,,0.03,0.0,WeatherDisplay:10.37,2013-03-03 05:00:00,
2013-03-03 00:01:00,22.9,20.9,29.78,WSW,255,6.0,6.0,92,0.01,-SN,,0.00,0.0,WeatherDisplay:10.37,2013-03-03 05:01:00,
2013-03-03 00:06:00,22.9,20.9,29.78,West,273,4.6,4.6,92,0.01,-SN,,0.00,0.0,WeatherDisplay:10.37,2013-03-03 05:06:00,
2013-03-03 00:11:00,22.9,20.9,29.78,WSW,249,5.8,5.8,92,0.01,-SN,,0.00,0.0,WeatherDisplay:10.37,2013-03-03 05:11:00,
2013-03-03 00:16:00,22.9,20.9,29.78,WSW,245,3.5,3.5,92,0.00,-SN,,0.00,0.0,WeatherDisplay:10.37,2013-03-03 05:16:00,
2013-03-03 00:21:00,22.9,20.9,29.78,WSW,252,3.5,3.5,92,0.00,-SN,,0.00,0.0,WeatherDisplay:10.37,2013-03-03 05:21:00,
2013-03-03 00:26:00,22.9,20.9,29.78,WSW,237,4.6,4.6,92,0.00,-SN,,0.00,0.0,WeatherDisplay:10.37,2013-03-03 05:26:00,
2013-03-03 00:31:00,22.8,20.8,29.78,West,266,3.5,3.5,92,0.00,-SN,,0.00,0.0,WeatherDisplay:10.37,2013-03-03 05:31:00,
2013-03-03 00:36:00,22.8,20.8,29.78,West,281,4.6,4.6,92,0.00,-SN,,0.00,0.0,WeatherDisplay:10.37,2013-03-03 05:36:00,
2013-03-03 00:41:00,22.9,20.9,29.77,West,273,6.9,6.9,92,0.00,-SN,,0.00,0.0,WeatherDisplay:10.37,2013-03-03 05:41:00,
2013-03-03 00:46:00,22.9,20.9,29.77,SW,232,4.0,4.0,92,0.00,-SN,,0.00,0.0,WeatherDisplay:10.37,2013-03-03 05:46:00,
2013-03-03 00:51:00,22.9,20.9,29.78,WSW,254,3.5,3.5,92,0.00,-SN,,0.00,0.0,WeatherDisplay:10.37,2013-03-03 05:51:00,
2013-03-03 00:56:00,22.8,20.8,29.78,WSW,254,4.6,4.6,92,0.00,-SN,,0.00,0.0,WeatherDisplay:10.37,2013-03-03 05:56:00,
2013-03-03 01:01:00,22.9,20.9,29.78,WSW,248,3.5,3.5,92,0.00,-SN,,0.00,0.0,WeatherDisplay:10.37,2013-03-03 06:01:00,
2013-03-03 01:06:00,22.8,20.8,29.78,WSW,257,5.8,5.8,92,0.00,-SN,,0.00,0.0,WeatherDisplay:10.37,2013-03-03 06:06:00,
2013-03-03 01:11:00,22.8,20.8,29.78,West,269,8.1,8.1,92,0.00,-SN,,0.00,0.0,WeatherDisplay:10.37,2013-03-03 06:11:00,
2013-03-03 01:16:00,22.8,20.8,29.78,WSW,242,3.5,3.5,92,0.00,-SN,,0.00,0.0,WeatherDisplay:10.37,2013-03-03 06:16:00,
2013-03-03 01:21:00,22.8,20.8,29.77,WSW,257,3.5,3.5,92,0.00,-SN,,0.00,0.0,WeatherDisplay:10.37,2013-03-03 06:21:00,
2013-03-03 01:26:00,22.8,20.8,29.78,SW,220,4.0,4.0,92,0.00,-SN,,0.00,0.0,WeatherDisplay:10.37,2013-03-03 06:26:00,
2013-03-03 01:31:00,22.8,20.8,29.77,SSW,211,4.6,4.6,92,0.00,-SN,,0.00,0.0,WeatherDisplay:10.37,2013-03-03 06:31:00,
2013-03-03 01:36:00,22.8,20.8,29.77,West,267,3.5,3.5,92,0.00,-SN,,0.00,0.0,WeatherDisplay:10.37,2013-03-03 06:36:00,
2013-03-03 01:41:00,22.8,20.8,29.77,WSW,248,4.6,4.6,92,0.00,-SN,,0.00,0.0,WeatherDisplay:10.37,2013-03-03 06:41:00,
2013-03-03 01:46:00,22.8,20.8,29.77,West,273,3.5,3.5,92,0.01,-SN,,0.01,0.0,WeatherDisplay:10.37,2013-03-03 06:46:00,
2013-03-03 01:51:00,22.8,20.8,29.77,West,262,5.8,5.8,92,0.01,-SN,,0.01,0.0,WeatherDisplay:10.37,2013-03-03 06:51:00,
2013-03-03 01:56:00,22.7,20.7,29.77,West,260,4.6,4.6,92,0.01,-SN,,0.01,0.0,WeatherDisplay:10.37,2013-03-03 06:56:00,
2013-03-03 02:01:00,22.7,20.7,29.77,WSW,247,4.6,4.6,92,0.01,-SN,,0.01,0.0,WeatherDisplay:10.37,2013-03-03 07:01:00,
2013-03-03 02:06:00,22.7,20.7,29.76,WSW,254,5.0,5.0,92,0.01,-SN,,0.01,0.0,WeatherDisplay:10.37,2013-03-03 07:06:00,
2013-03-03 02:11:00,22.6,20.6,29.76,WSW,243,4.6,4.6,92,0.01,-SN,,0.01,0.0,WeatherDisplay:10.37,2013-03-03 07:11:00,
2013-03-03 02:16:00,22.6,20.6,29.76,SW,226,4.6,4.6,92,0.01,-SN,,0.01,0.0,WeatherDisplay:10.37,2013-03-03 07:16:00,
2013-03-03 02:21:00,22.6,20.6,29.76,West,271,4.6,4.6,92,0.01,-SN,,0.01,0.0,WeatherDisplay:10.37,2013-03-03 07:21:00,
2013-03-03 02:26:00,22.6,20.6,29.76,WSW,238,4.6,4.6,92,0.01,-SN,,0.01,0.0,WeatherDisplay:10.37,2013-03-03 07:26:00,
2013-03-03 02:31:00,22.6,20.6,29.76,WSW,241,4.0,4.0,92,0.01,-SN,,0.01,0.0,WeatherDisplay:10.37,2013-03-03 07:31:00,
2013-03-03 02:36:00,22.5,20.5,29.76,WSW,248,4.6,4.6,92,0.01,-SN,,0.01,0.0,WeatherDisplay:10.37,2013-03-03 07:36:00,
2013-03-03 02:41:00,22.5,20.5,29.76,West,277,4.0,4.0,92,0.01,-SN,,0.01,0.0,WeatherDisplay:10.37,2013-03-03 07:41:00,
2013-03-03 02:46:00,22.5,20.5,29.76,West,280,5.0,5.0,92,0.00,-SN,,0.01,0.0,WeatherDisplay:10.37,2013-03-03 07:46:00,
2013-03-03 02:51:00,22.5,20.5,29.75,SW,236,4.6,4.6,92,0.00,-SN,,0.01,0.0,WeatherDisplay:10.37,2013-03-03 07:51:00,
2013-03-03 02:56:00,22.4,20.4,29.75,West,261,4.6,4.6,92,0.00,-SN,,0.01,0.0,WeatherDisplay:10.37,2013-03-03 07:56:00,
2013-03-03 03:01:00,22.4,20.4,29.75,WSW,255,4.6,4.6,92,0.00,-SN,,0.01,0.0,WeatherDisplay:10.37,2013-03-03 08:01:00,
2013-03-03 03:06:00,22.3,20.3,29.75,WSW,251,3.5,3.5,92,0.00,-SN,,0.01,0.0,WeatherDisplay:10.37,2013-03-03 08:06:00,
2013-03-03 03:11:00,22.3,20.3,29.75,WSW,241,3.5,3.5,92,0.00,-SN,,0.01,0.0,WeatherDisplay:10.37,2013-03-03 08:11:00,
2013-03-03 03:16:00,22.3,20.3,29.75,West,267,3.5,3.5,92,0.00,-SN,,0.01,0.0,WeatherDisplay:10.37,2013-03-03 08:16:00,
2013-03-03 03:21:00,22.3,20.3,29.76,WSW,246,4.0,4.0,92,0.00,-SN,,0.01,0.0,WeatherDisplay:10.37,2013-03-03 08:21:00,
2013-03-03 03:26:00,22.2,20.2,29.75,WSW,244,4.0,4.0,92,0.00,-SN,,0.01,0.0,WeatherDisplay:10.37,2013-03-03 08:26:00,
2013-03-03 03:31:00,22.2,20.2,29.75,WSW,249,4.0,4.0,92,0.00,-SN,,0.01,0.0,WeatherDisplay:10.37,2013-03-03 08:31:00,
2013-03-03 03:36:00,22.2,20.2,29.75,WSW,247,3.5,3.5,92,0.00,-SN,,0.01,0.0,WeatherDisplay:10.37,2013-03-03 08:36:00,
2013-03-03 03:41:00,22.2,20.2,29.75,WSW,245,4.0,4.0,92,0.00,-SN,,0.01,0.0,WeatherDisplay:10.37,2013-03-03 08:41:00,
2013-03-03 03:46:00,22.2,20.2,29.75,SW,234,4.6,4.6,92,0.00,-SN,,0.01,0.0,WeatherDisplay:10.37,2013-03-03 08:46:00,
2013-03-03 03:51:00,22.1,20.1,29.75,SW,224,4.6,4.6,92,0.00,-SN,,0.01,0.0,WeatherDisplay:10.37,2013-03-03 08:51:00,
2013-03-03 03:56:00,22.2,20.2,29.76,WSW,242,3.5,3.5,92,0.00,-SN,,0.01,0.0,WeatherDisplay:10.37,2013-03-03 08:56:00,
2013-03-03 04:01:00,22.2,20.2,29.75,SW,236,5.8,5.8,92,0.00,-SN,,0.01,0.0,WeatherDisplay:10.37,2013-03-03 09:01:00,
2013-03-03 04:06:00,22.3,20.3,29.76,WSW,243,5.8,5.8,92,0.00,-SN,,0.01,0.0,WeatherDisplay:10.37,2013-03-03 09:06:00,
2013-03-03 04:11:00,22.3,20.3,29.76,WSW,237,4.6,4.6,92,0.00,-SN,,0.01,0.0,WeatherDisplay:10.37,2013-03-03 09:11:00,
2013-03-03 04:16:00,22.3,20.3,29.75,WSW,240,5.0,5.0,92,0.00,-SN,,0.01,0.0,WeatherDisplay:10.37,2013-03-03 09:16:00,
2013-03-03 04:21:00,22.3,20.3,29.76,SW,232,6.9,6.9,92,0.00,-SN,,0.01,0.0,WeatherDisplay:10.37,2013-03-03 09:21:00,
2013-03-03 04:26:00,22.3,20.3,29.75,SW,223,4.0,4.0,92,0.00,-SN,,0.01,0.0,WeatherDisplay:10.37,2013-03-03 09:26:00,
2013-03-03 04:31:00,22.3,20.3,29.76,SW,229,5.8,5.8,92,0.00,-SN,,0.01,0.0,WeatherDisplay:10.37,2013-03-03 09:31:00,
2013-03-03 04:36:00,22.3,20.3,29.76,WSW,254,3.5,3.5,92,0.00,-SN,,0.01,0.0,WeatherDisplay:10.37,2013-03-03 09:36:00,
2013-03-03 04:41:00,22.3,20.3,29.76,WSW,254,5.8,5.8,92,0.00,-SN,,0.01,0.0,WeatherDisplay:10.37,2013-03-03 09:41:00,
2013-03-03 04:46:00,22.3,20.3,29.76,WSW,256,4.6,4.6,92,0.00,-SN,,0.01,0.0,WeatherDisplay:10.37,2013-03-03 09:46:00,
2013-03-03 04:51:00,22.3,20.3,29.76,SW,228,4.6,4.6,92,0.00,-SN,,0.01,0.0,WeatherDisplay:10.37,2013-03-03 09:51:00,
2013-03-03 04:56:00,22.3,20.3,29.76,WSW,246,6.9,6.9,92,0.00,-SN,,0.01,0.0,WeatherDisplay:10.37,2013-03-03 09:56:00,
2013-03-03 05:01:00,22.2,20.0,29.76,SW,234,5.8,5.8,91,0.00,-SN,,0.01,0.0,WeatherDisplay:10.37,2013-03-03 10:01:00,
2013-03-03 05:06:00,22.2,20.0,29.76,WSW,258,4.0,4.0,91,0.00,-SN,,0.01,0.0,WeatherDisplay:10.37,2013-03-03 10:06:00,
2013-03-03 05:11:00,22.2,20.0,29.76,WSW,258,5.0,5.0,91,0.00,-SN,,0.01,0.0,WeatherDisplay:10.37,2013-03-03 10:11:00,
2013-03-03 05:16:00,22.2,20.0,29.76,WSW,245,4.6,4.6,91,0.00,-SN,,0.01,0.0,WeatherDisplay:10.37,2013-03-03 10:16:00,
2013-03-03 05:21:00,22.2,20.0,29.76,West,277,3.5,3.5,91,0.00,-SN,,0.01,0.0,WeatherDisplay:10.37,2013-03-03 10:21:00,
2013-03-03 05:26:00,22.2,20.0,29.76,West,273,5.8,5.8,91,0.00,-SN,,0.01,0.0,WeatherDisplay:10.37,2013-03-03 10:26:00,
2013-03-03 05:31:00,22.2,20.0,29.76,WSW,242,5.0,5.0,91,0.00,-SN,,0.01,0.0,WeatherDisplay:10.37,2013-03-03 10:31:00,
2013-03-03 05:36:00,22.1,19.9,29.76,SW,236,5.0,5.0,91,0.00,-SN,,0.01,0.0,WeatherDisplay:10.37,2013-03-03 10:36:00,
2013-03-03 05:41:00,22.1,19.9,29.76,WSW,238,3.5,3.5,91,0.00,-SN,,0.01,0.0,WeatherDisplay:10.37,2013-03-03 10:41:00,
2013-03-03 05:46:00,22.1,19.9,29.76,WSW,246,8.1,8.1,91,0.00,-SN,,0.01,0.0,WeatherDisplay:10.37,2013-03-03 10:46:00,
2013-03-03 05:51:00,22.1,19.9,29.76,SW,232,5.8,5.8,91,0.00,-SN,,0.01,0.0,WeatherDisplay:10.37,2013-03-03 10:51:00,
2013-03-03 05:56:00,22.1,19.9,29.76,SW,215,6.9,6.9,91,0.00,-SN,,0.01,0.0,WeatherDisplay:10.37,2013-03-03 10:56:00,
2013-03-03 06:01:00,22.1,19.9,29.76,SW,236,4.6,4.6,91,0.00,-SN,,0.01,0.0,WeatherDisplay:10.37,2013-03-03 11:01:00,
2013-03-03 06:06:00,22.1,19.9,29.76,WSW,255,7.0,7.0,91,0.00,-SN,,0.01,0.0,WeatherDisplay:10.37,2013-03-03 11:06:00,
2013-03-03 06:11:00,22.1,19.9,29.76,SW,236,3.5,3.5,91,0.00,-SN,,0.01,0.0,WeatherDisplay:10.37,2013-03-03 11:11:00,
2013-03-03 06:16:00,22.1,19.9,29.76,WSW,257,6.9,6.9,91,0.00,-SN,,0.01,0.0,WeatherDisplay:10.37,2013-03-03 11:16:00,
2013-03-03 06:21:00,22.0,19.5,29.76,WSW,246,6.9,6.9,90,0.00,-SN,,0.01,0.0,WeatherDisplay:10.37,2013-03-03 11:21:00,
2013-03-03 06:26:00,22.0,19.5,29.76,West,262,9.2,9.2,90,0.00,-SN,,0.01,0.0,WeatherDisplay:10.37,2013-03-03 11:26:00,
2013-03-03 06:31:00,22.0,19.5,29.76,WSW,238,5.8,5.8,90,0.00,-SN,,0.01,0.0,WeatherDisplay:10.37,2013-03-03 11:31:00,
2013-03-03 06:36:00,22.0,19.5,29.76,SW,225,4.6,4.6,90,0.00,-SN,,0.01,0.0,WeatherDisplay:10.37,2013-03-03 11:36:00,
2013-03-03 06:41:00,22.0,19.5,29.76,WSW,243,6.0,6.0,90,0.00,-SN,,0.01,0.0,WeatherDisplay:10.37,2013-03-03 11:41:00,
2013-03-03 06:46:00,22.0,19.5,29.76,SW,234,5.8,5.8,90,0.00,-SN,,0.01,5.0,WeatherDisplay:10.37,2013-03-03 11:46:00,
2013-03-03 06:51:00,22.0,19.5,29.76,West,271,4.0,4.5,90,0.00,-SN,,0.01,9.0,WeatherDisplay:10.37,2013-03-03 11:51:00,
2013-03-03 06:56:00,22.1,19.6,29.76,SW,232,3.5,3.5,90,0.00,-SN,,0.01,14.0,WeatherDisplay:10.37,2013-03-03 11:56:00,
2013-03-03 07:01:00,22.1,19.6,29.76,WSW,248,5.8,5.8,90,0.00,-SN,,0.01,12.0,WeatherDisplay:10.37,2013-03-03 12:01:00,
2013-03-03 07:06:00,22.1,19.6,29.76,SW,225,4.6,4.6,90,0.00,OVC,,0.01,14.0,WeatherDisplay:10.37,2013-03-03 12:06:00,
2013-03-03 07:11:00,22.1,19.6,29.76,SW,233,6.9,6.9,90,0.00,OVC,,0.01,19.0,WeatherDisplay:10.37,2013-03-03 12:11:00,
2013-03-03 07:16:00,22.1,19.6,29.76,WSW,239,8.1,8.1,90,0.00,OVC,,0.01,16.0,WeatherDisplay:10.37,2013-03-03 12:16:00,
2013-03-03 07:21:00,22.0,19.3,29.76,WSW,239,7.0,7.0,89,0.00,OVC,,0.01,19.0,WeatherDisplay:10.37,2013-03-03 12:21:00,
2013-03-03 07:26:00,22.0,19.3,29.76,WSW,240,6.0,6.0,89,0.00,OVC,,0.01,25.0,WeatherDisplay:10.37,2013-03-03 12:26:00,
2013-03-03 07:31:00,22.0,19.3,29.76,SW,232,11.5,11.5,89,0.00,OVC,,0.01,28.0,WeatherDisplay:10.37,2013-03-03 12:31:00,
2013-03-03 07:36:00,22.0,19.3,29.76,WSW,242,9.0,9.0,89,0.00,OVC,,0.01,32.0,WeatherDisplay:10.37,2013-03-03 12:36:00,
2013-03-03 07:41:00,22.0,19.3,29.76,WSW,244,6.9,6.9,89,0.00,OVC,,0.01,33.0,WeatherDisplay:10.37,2013-03-03 12:41:00,
2013-03-03 07:46:00,22.0,19.3,29.76,SSW,210,9.2,9.2,89,0.00,OVC,,0.01,35.0,WeatherDisplay:10.37,2013-03-03 12:46:00,
2013-03-03 07:51:00,22.1,19.4,29.76,West,267,5.8,5.8,89,0.00,OVC,,0.01,42.0,WeatherDisplay:10.37,2013-03-03 12:51:00,
2013-03-03 07:56:00,22.1,19.4,29.76,WSW,251,6.9,6.9,89,0.00,OVC,,0.01,63.0,WeatherDisplay:10.37,2013-03-03 12:56:00,
2013-03-03 08:01:00,22.2,19.2,29.76,West,279,3.5,3.5,88,0.00,OVC,,0.01,76.0,WeatherDisplay:10.37,2013-03-03 13:01:00,
2013-03-03 08:06:00,22.3,19.3,29.77,WSW,245,6.9,6.9,88,0.00,OVC,,0.01,81.0,WeatherDisplay:10.37,2013-03-03 13:06:00,
2013-03-03 08:11:00,22.4,19.1,29.77,West,271,8.1,8.1,87,0.00,OVC,,0.01,69.0,WeatherDisplay:10.37,2013-03-03 13:11:00,
2013-03-03 08:16:00,22.3,19.0,29.77,SW,229,6.9,6.9,87,0.00,-SN,,0.01,62.0,WeatherDisplay:10.37,2013-03-03 13:16:00,
2013-03-03 08:21:00,22.4,19.4,29.77,West,271,3.5,3.5,88,0.00,-SN,,0.01,62.0,WeatherDisplay:10.37,2013-03-03 13:21:00,
2013-03-03 08:26:00,22.5,19.5,29.77,West,271,3.5,3.5,88,0.00,-SN,,0.01,65.0,WeatherDisplay:10.37,2013-03-03 13:26:00,
2013-03-03 08:31:00,22.5,19.2,29.77,WNW,284,4.6,4.6,87,0.00,-SN,,0.01,72.0,WeatherDisplay:10.37,2013-03-03 13:31:00,
2013-03-03 08:36:00,22.5,19.2,29.78,West,276,3.0,3.0,87,0.00,-SN,,0.01,83.0,WeatherDisplay:10.37,2013-03-03 13:36:00,
2013-03-03 08:41:00,22.5,19.2,29.78,West,260,3.5,3.5,87,0.00,-SN,,0.01,95.0,WeatherDisplay:10.37,2013-03-03 13:41:00,
2013-03-03 08:46:00,22.6,19.3,29.78,WSW,246,4.0,4.0,87,0.00,-SN,,0.01,121.0,WeatherDisplay:10.37,2013-03-03 13:46:00,
2013-03-03 08:51:00,22.7,19.4,29.77,WSW,238,6.0,6.0,87,0.00,-SN,,0.01,149.0,WeatherDisplay:10.37,2013-03-03 13:51:00,
2013-03-03 08:56:00,22.8,19.2,29.77,SW,232,6.9,6.9,86,0.00,-SN,,0.01,144.0,WeatherDisplay:10.37,2013-03-03 13:56:00,
2013-03-03 09:01:00,22.7,18.6,29.77,SW,225,6.9,6.9,84,0.00,-SN,,0.01,146.0,WeatherDisplay:10.37,2013-03-03 14:01:00,
2013-03-03 09:06:00,22.6,18.8,29.77,SW,229,5.0,5.0,85,0.00,-SN,,0.01,179.0,WeatherDisplay:10.37,2013-03-03 14:06:00,
2013-03-03 09:11:00,22.8,19.0,29.77,WSW,246,4.6,4.6,85,0.00,-SN,,0.01,199.0,WeatherDisplay:10.37,2013-03-03 14:11:00,
2013-03-03 09:16:00,23.2,19.4,29.77,WSW,254,5.8,5.8,85,0.00,-SN,,0.01,207.0,WeatherDisplay:10.37,2013-03-03 14:16:00,
2013-03-03 09:21:00,23.6,19.5,29.76,SW,236,6.9,6.9,84,0.00,-SN,,0.01,294.0,WeatherDisplay:10.37,2013-03-03 14:21:00,
2013-03-03 09:26:00,23.9,19.5,29.76,WSW,249,9.2,9.2,83,0.00,-SN,,0.01,234.0,WeatherDisplay:10.37,2013-03-03 14:26:00,
2013-03-03 09:31:00,24.1,19.4,29.76,SW,217,8.1,8.1,82,0.00,-SN,,0.01,151.0,WeatherDisplay:10.37,2013-03-03 14:31:00,
2013-03-03 09:36:00,23.9,19.2,29.76,West,277,8.1,8.1,82,0.00,-SN,,0.01,181.0,WeatherDisplay:10.37,2013-03-03 14:36:00,
2013-03-03 09:41:00,23.6,18.9,29.76,SW,228,11.5,11.5,82,0.00,-SN,,0.01,156.0,WeatherDisplay:10.37,2013-03-03 14:41:00,
2013-03-03 09:46:00,23.4,18.7,29.76,SW,221,8.1,8.1,82,0.00,-SN,,0.01,185.0,WeatherDisplay:10.37,2013-03-03 14:46:00,
2013-03-03 09:51:00,23.5,18.8,29.76,SW,217,9.2,9.2,82,0.00,-SN,,0.01,197.0,WeatherDisplay:10.37,2013-03-03 14:51:00,
2013-03-03 09:56:00,23.6,18.9,29.76,WSW,245,11.5,11.5,82,0.00,-SN,,0.01,192.0,WeatherDisplay:10.37,2013-03-03 14:56:00,
2013-03-03 10:01:00,23.9,19.2,29.76,WSW,246,11.5,11.5,82,0.00,-SN,,0.01,206.0,WeatherDisplay:10.37,2013-03-03 15:01:00,
2013-03-03 10:06:00,24.1,19.4,29.76,SW,222,6.9,6.9,82,0.00,-SN,,0.01,213.0,WeatherDisplay:10.37,2013-03-03 15:06:00,
2013-03-03 10:11:00,24.1,19.1,29.76,SW,219,6.9,6.9,81,0.00,-SN,,0.01,211.0,WeatherDisplay:10.37,2013-03-03 15:11:00,
2013-03-03 10:16:00,24.0,19.0,29.75,West,275,6.9,6.9,81,0.00,OVC,,0.01,251.0,WeatherDisplay:10.37,2013-03-03 15:16:00,
2013-03-03 10:21:00,24.3,19.3,29.75,WSW,237,11.5,11.5,81,0.00,OVC,,0.01,374.0,WeatherDisplay:10.37,2013-03-03 15:21:00,
2013-03-03 10:26:00,24.7,19.7,29.75,WNW,293,5.8,5.8,81,0.00,OVC,,0.01,313.0,WeatherDisplay:10.37,2013-03-03 15:26:00,
2013-03-03 10:31:00,25.2,19.9,29.75,WSW,245,6.9,6.9,80,0.00,OVC,,0.01,343.0,WeatherDisplay:10.37,2013-03-03 15:31:00,
2013-03-03 10:36:00,25.7,20.1,29.75,SW,229,9.2,9.2,79,0.00,OVC,,0.01,503.0,WeatherDisplay:10.37,2013-03-03 15:36:00,
2013-03-03 10:41:00,26.0,20.1,29.75,SW,218,15.0,15.0,78,0.00,OVC,,0.01,621.0,WeatherDisplay:10.37,2013-03-03 15:41:00,
2013-03-03 10:46:00,26.2,20.3,29.75,WSW,244,9.2,9.2,78,0.00,OVC,,0.01,649.0,WeatherDisplay:10.37,2013-03-03 15:46:00,
2013-03-03 10:51:00,26.5,20.3,29.75,West,272,8.1,8.1,77,0.00,OVC,,0.01,490.0,WeatherDisplay:10.37,2013-03-03 15:51:00,
2013-03-03 10:56:00,26.8,20.6,29.76,SW,234,8.1,8.1,77,0.00,OVC,,0.01,501.0,WeatherDisplay:10.37,2013-03-03 15:56:00,
2013-03-03 11:01:00,26.7,20.5,29.76,WSW,241,9.2,9.2,77,0.00,OVC,,0.01,497.0,WeatherDisplay:10.37,2013-03-03 16:01:00,
2013-03-03 11:06:00,26.6,19.7,29.75,SW,236,11.5,11.5,75,0.00,OVC,,0.01,427.0,WeatherDisplay:10.37,2013-03-03 16:06:00,
2013-03-03 11:11:00,26.1,19.9,29.75,WSW,255,11.5,11.5,77,0.00,OVC,,0.01,410.0,WeatherDisplay:10.37,2013-03-03 16:11:00,
2013-03-03 11:16:00,26.0,19.8,29.75,WSW,238,9.2,9.2,77,0.00,BKN,,0.01,436.0,WeatherDisplay:10.37,2013-03-03 16:16:00,
2013-03-03 11:21:00,26.2,20.3,29.75,South,184,8.0,8.0,78,0.00,BKN,,0.01,450.0,WeatherDisplay:10.37,2013-03-03 16:21:00,
2013-03-03 11:26:00,26.3,19.8,29.74,SW,230,10.4,10.4,76,0.00,BKN,,0.01,439.0,WeatherDisplay:10.37,2013-03-03 16:26:00,
2013-03-03 11:31:00,26.3,19.8,29.74,SW,221,11.5,11.5,76,0.00,BKN,,0.01,445.0,WeatherDisplay:10.37,2013-03-03 16:31:00,
2013-03-03 11:36:00,26.5,20.3,29.74,SW,230,9.0,9.0,77,0.00,BKN,,0.01,480.0,WeatherDisplay:10.37,2013-03-03 16:36:00,
2013-03-03 11:41:00,26.5,20.0,29.74,SW,232,8.1,8.1,76,0.00,BKN,,0.01,480.0,WeatherDisplay:10.37,2013-03-03 16:41:00,
2013-03-03 11:46:00,26.8,20.2,29.73,SW,217,11.5,11.5,76,0.00,BKN,,0.01,793.0,WeatherDisplay:10.37,2013-03-03 16:46:00,
2013-03-03 11:51:00,27.1,19.9,29.73,SW,231,10.4,10.4,74,0.00,BKN,,0.01,550.0,WeatherDisplay:10.37,2013-03-03 16:51:00,
2013-03-03 11:56:00,26.8,19.9,29.73,WSW,238,10.4,10.4,75,0.00,BKN,,0.01,485.0,WeatherDisplay:10.37,2013-03-03 16:56:00,
2013-03-03 12:01:00,26.3,19.5,29.73,SW,219,10.4,10.4,75,0.00,BKN,,0.01,450.0,WeatherDisplay:10.37,2013-03-03 17:01:00,
2013-03-03 12:06:00,26.2,19.7,29.73,WSW,241,8.1,8.1,76,0.00,BKN,,0.01,461.0,WeatherDisplay:10.37,2013-03-03 17:06:00,
2013-03-03 12:11:00,26.9,20.0,29.73,West,277,8.0,8.0,75,0.00,BKN,,0.01,503.0,WeatherDisplay:10.37,2013-03-03 17:11:00,
2013-03-03 12:16:00,27.2,19.7,29.72,WSW,245,11.5,11.5,73,0.00,BKN,,0.01,501.0,WeatherDisplay:10.37,2013-03-03 17:16:00,
2013-03-03 12:21:00,27.2,19.7,29.72,West,269,10.4,10.4,73,0.00,BKN,,0.01,450.0,WeatherDisplay:10.37,2013-03-03 17:21:00,
2013-03-03 12:26:00,27.5,20.3,29.72,WSW,238,8.1,8.1,74,0.00,BKN,,0.01,431.0,WeatherDisplay:10.37,2013-03-03 17:26:00,
2013-03-03 12:31:00,27.8,20.9,29.72,SW,232,6.9,6.9,75,0.00,BKN,,0.01,441.0,WeatherDisplay:10.37,2013-03-03 17:31:00,
2013-03-03 12:36:00,27.7,20.5,29.72,WSW,239,8.1,8.1,74,0.00,BKN,,0.01,406.0,WeatherDisplay:10.37,2013-03-03 17:36:00,
2013-03-03 12:41:00,27.4,19.9,29.72,SW,226,10.4,10.4,73,0.00,BKN,,0.01,411.0,WeatherDisplay:10.37,2013-03-03 17:41:00,
2013-03-03 12:46:00,27.5,20.6,29.72,SW,214,11.5,11.5,75,0.00,BKN,,0.01,434.0,WeatherDisplay:10.37,2013-03-03 17:46:00,
2013-03-03 12:51:00,27.4,20.2,29.71,WSW,240,13.8,13.8,74,0.00,BKN,,0.01,455.0,WeatherDisplay:10.37,2013-03-03 17:51:00,
2013-03-03 12:56:00,27.4,20.2,29.72,WSW,238,11.5,11.5,74,0.00,BKN,,0.01,499.0,WeatherDisplay:10.37,2013-03-03 17:56:00,
2013-03-03 13:01:00,28.0,21.1,29.71,SSW,211,9.2,9.2,75,0.00,BKN,,0.01,480.0,WeatherDisplay:10.37,2013-03-03 18:01:00,
2013-03-03 13:06:00,28.0,20.8,29.71,SW,228,12.7,12.7,74,0.00,BKN,,0.01,450.0,WeatherDisplay:10.37,2013-03-03 18:06:00,
2013-03-03 13:11:00,27.8,20.6,29.71,SW,235,11.5,11.5,74,0.00,BKN,,0.01,406.0,WeatherDisplay:10.37,2013-03-03 18:11:00,
2013-03-03 13:16:00,28.0,20.8,29.71,SSW,213,9.2,9.2,74,0.00,BKN,,0.01,401.0,WeatherDisplay:10.37,2013-03-03 18:16:00,
2013-03-03 13:21:00,27.8,20.6,29.71,WSW,251,11.5,11.5,74,0.00,BKN,,0.01,417.0,WeatherDisplay:10.37,2013-03-03 18:21:00,
2013-03-03 13:26:00,28.1,21.5,29.71,SSW,208,9.2,9.2,76,0.00,BKN,,0.01,415.0,WeatherDisplay:10.37,2013-03-03 18:26:00,
2013-03-03 13:31:00,28.7,21.5,29.71,West,269,6.9,6.9,74,0.00,BKN,,0.01,404.0,WeatherDisplay:10.37,2013-03-03 18:31:00,
2013-03-03 13:36:00,28.9,21.7,29.71,WSW,248,7.0,7.0,74,0.00,BKN,,0.01,401.0,WeatherDisplay:10.37,2013-03-03 18:36:00,
2013-03-03 13:41:00,28.7,21.5,29.71,WSW,238,11.5,11.5,74,0.00,BKN,,0.01,383.0,WeatherDisplay:10.37,2013-03-03 18:41:00,
2013-03-03 13:47:00,28.6,21.4,29.71,WSW,244,9.2,9.2,74,0.00,BKN,,0.01,362.0,WeatherDisplay:10.37,2013-03-03 18:47:00,
2013-03-03 13:52:00,28.4,21.2,29.71,SW,232,10.4,10.4,74,0.00,BKN,,0.01,374.0,WeatherDisplay:10.37,2013-03-03 18:52:00,
2013-03-03 13:57:00,28.3,21.4,29.71,West,270,12.7,12.7,75,0.00,BKN,,0.01,388.0,WeatherDisplay:10.37,2013-03-03 18:57:00,
2013-03-03 14:02:00,28.6,21.7,29.71,SSW,205,8.1,8.1,75,0.00,BKN,,0.01,364.0,WeatherDisplay:10.37,2013-03-03 19:02:00,
2013-03-03 14:07:00,28.5,21.3,29.71,WSW,242,11.5,11.5,74,0.00,BKN,,0.01,330.0,WeatherDisplay:10.37,2013-03-03 19:07:00,
2013-03-03 14:12:00,28.3,21.4,29.71,SW,227,10.4,10.4,75,0.00,BKN,,0.01,345.0,WeatherDisplay:10.37,2013-03-03 19:12:00,
2013-03-03 14:17:00,28.2,21.3,29.71,SW,236,9.2,9.2,75,0.00,OVC,,0.01,352.0,WeatherDisplay:10.37,2013-03-03 19:17:00,
2013-03-03 14:22:00,28.4,21.5,29.71,WSW,242,8.1,8.1,75,0.00,OVC,,0.01,371.0,WeatherDisplay:10.37,2013-03-03 19:22:00,
2013-03-03 14:27:00,28.6,22.0,29.70,WSW,251,10.4,10.4,76,0.00,OVC,,0.01,374.0,WeatherDisplay:10.37,2013-03-03 19:27:00,
2013-03-03 14:32:00,28.8,22.5,29.70,SW,233,5.8,5.8,77,0.00,OVC,,0.01,359.0,WeatherDisplay:10.37,2013-03-03 19:32:00,
2013-03-03 14:37:00,28.9,22.0,29.70,West,278,6.9,6.9,75,0.00,OVC,,0.01,418.0,WeatherDisplay:10.37,2013-03-03 19:37:00,
2013-03-03 14:42:00,28.7,21.8,29.70,WSW,250,12.7,12.7,75,0.00,OVC,,0.01,415.0,WeatherDisplay:10.37,2013-03-03 19:42:00,
2013-03-03 14:47:00,28.8,22.2,29.70,West,263,13.8,13.8,76,0.00,OVC,,0.01,392.0,WeatherDisplay:10.37,2013-03-03 19:47:00,
2013-03-03 14:52:00,28.5,21.6,29.70,SW,236,11.5,11.5,75,0.00,OVC,,0.01,327.0,WeatherDisplay:10.37,2013-03-03 19:52:00,
2013-03-03 14:57:00,28.3,21.7,29.70,SW,216,8.1,8.1,76,0.00,OVC,,0.01,371.0,WeatherDisplay:10.37,2013-03-03 19:57:00,
2013-03-03 15:02:00,28.3,21.7,29.70,SW,232,15.0,15.0,76,0.00,OVC,,0.01,394.0,WeatherDisplay:10.37,2013-03-03 20:02:00,
2013-03-03 15:07:00,28.4,22.1,29.71,West,269,8.1,8.1,77,0.00,OVC,,0.01,325.0,WeatherDisplay:10.37,2013-03-03 20:07:00,
2013-03-03 15:12:00,28.5,21.9,29.71,WSW,245,10.4,10.4,76,0.00,OVC,,0.01,285.0,WeatherDisplay:10.37,2013-03-03 20:12:00,
2013-03-03 15:17:00,28.4,21.8,29.71,SW,216,12.7,12.7,76,0.00,OVC,,0.01,258.0,WeatherDisplay:10.37,2013-03-03 20:17:00,
2013-03-03 15:22:00,28.3,21.7,29.71,West,261,9.2,9.2,76,0.00,OVC,,0.01,269.0,WeatherDisplay:10.37,2013-03-03 20:22:00,
2013-03-03 15:27:00,28.2,21.6,29.71,WSW,240,9.2,9.2,76,0.00,OVC,,0.01,271.0,WeatherDisplay:10.37,2013-03-03 20:27:00,
2013-03-03 15:32:00,28.1,21.5,29.71,SW,229,10.4,10.4,76,0.00,OVC,,0.01,223.0,WeatherDisplay:10.37,2013-03-03 20:32:00,
2013-03-03 15:37:00,28.0,21.4,29.71,SW,236,12.7,12.7,76,0.00,OVC,,0.01,206.0,WeatherDisplay:10.37,2013-03-03 20:37:00,
2013-03-03 15:42:00,27.8,21.5,29.71,WSW,251,12.7,12.7,77,0.00,OVC,,0.01,192.0,WeatherDisplay:10.37,2013-03-03 20:42:00,
2013-03-03 15:47:00,27.8,21.5,29.71,WSW,244,9.2,9.2,77,0.00,OVC,,0.01,174.0,WeatherDisplay:10.37,2013-03-03 20:47:00,
2013-03-03 15:52:00,27.8,21.8,29.71,WSW,251,8.1,8.1,78,0.00,OVC,,0.01,151.0,WeatherDisplay:10.37,2013-03-03 20:52:00,
2013-03-03 15:57:00,27.7,21.7,29.71,WSW,256,8.1,8.1,78,0.00,OVC,,0.01,134.0,WeatherDisplay:10.37,2013-03-03 20:57:00,
2013-03-03 16:02:00,27.6,21.9,29.71,WSW,242,11.5,11.5,79,0.00,-SN,,0.01,132.0,WeatherDisplay:10.37,2013-03-03 21:02:00,
2013-03-03 16:07:00,27.4,21.7,29.71,WSW,240,10.0,10.0,79,0.00,-SN,,0.01,137.0,WeatherDisplay:10.37,2013-03-03 21:07:00,
2013-03-03 16:12:00,27.2,21.8,29.71,SW,221,9.2,9.2,80,0.00,-SN,,0.01,134.0,WeatherDisplay:10.37,2013-03-03 21:12:00,
2013-03-03 16:17:00,27.1,22.0,29.71,SW,217,10.4,10.4,81,0.00,-SN,,0.01,120.0,WeatherDisplay:10.37,2013-03-03 21:17:00,
2013-03-03 16:22:00,26.9,22.1,29.71,WSW,242,11.5,11.5,82,0.00,-SN,,0.01,111.0,WeatherDisplay:10.37,2013-03-03 21:22:00,
2013-03-03 16:27:00,26.7,21.9,29.71,WSW,249,12.7,12.7,82,0.00,-SN,,0.01,100.0,WeatherDisplay:10.37,2013-03-03 21:27:00,
2013-03-03 16:32:00,26.6,22.1,29.71,West,271,10.4,10.4,83,0.00,-SN,,0.01,91.0,WeatherDisplay:10.37,2013-03-03 21:32:00,
2013-03-03 16:37:00,26.4,21.9,29.71,SSW,199,8.1,8.1,83,0.00,-SN,,0.01,79.0,WeatherDisplay:10.37,2013-03-03 21:37:00,
2013-03-03 16:42:00,26.3,22.1,29.71,SW,235,11.5,11.5,84,0.00,-SN,,0.01,65.0,WeatherDisplay:10.37,2013-03-03 21:42:00,
2013-03-03 16:47:00,26.3,22.1,29.71,WSW,251,5.0,5.0,84,0.00,-SN,,0.01,54.0,WeatherDisplay:10.37,2013-03-03 21:47:00,
2013-03-03 16:52:00,26.3,22.1,29.71,WSW,241,11.5,11.5,84,0.00,-SN,,0.01,49.0,WeatherDisplay:10.37,2013-03-03 21:52:00,
2013-03-03 16:57:00,26.2,22.0,29.71,West,267,12.7,12.7,84,0.00,-SN,,0.01,46.0,WeatherDisplay:10.37,2013-03-03 21:57:00,
2013-03-03 17:02:00,26.1,21.9,29.71,WSW,245,11.0,11.0,84,0.00,-SN,,0.01,42.0,WeatherDisplay:10.37,2013-03-03 22:02:00,
2013-03-03 17:07:00,26.1,21.9,29.71,SW,227,9.2,9.2,84,0.00,-SN,,0.01,39.0,WeatherDisplay:10.37,2013-03-03 22:07:00,
2013-03-03 17:12:00,26.0,21.8,29.72,WSW,241,10.4,10.4,84,0.00,-SN,,0.01,35.0,WeatherDisplay:10.37,2013-03-03 22:12:00,
2013-03-03 17:17:00,25.9,21.7,29.72,WSW,258,12.7,12.7,84,0.00,-SN,,0.01,28.0,WeatherDisplay:10.37,2013-03-03 22:17:00,
2013-03-03 17:22:00,25.7,21.5,29.72,WSW,243,8.1,8.1,84,0.00,-SN,,0.01,21.0,WeatherDisplay:10.37,2013-03-03 22:22:00,
2013-03-03 17:27:00,25.6,21.4,29.72,SW,227,11.5,11.5,84,0.00,-SN,,0.01,16.0,WeatherDisplay:10.37,2013-03-03 22:27:00,
2013-03-03 17:32:00,25.3,21.1,29.72,WSW,242,8.1,8.1,84,0.00,-SN,,0.01,11.0,WeatherDisplay:10.37,2013-03-03 22:32:00,
2013-03-03 17:37:00,25.3,21.4,29.72,SW,221,6.0,6.0,85,0.00,-SN,,0.01,7.0,WeatherDisplay:10.37,2013-03-03 22:37:00,
2013-03-03 17:42:00,25.1,21.2,29.72,WSW,238,6.9,6.9,85,0.00,-SN,,0.01,5.0,WeatherDisplay:10.37,2013-03-03 22:42:00,
2013-03-03 17:47:00,24.9,21.0,29.73,SW,234,11.5,11.5,85,0.00,-SN,,0.01,0.0,WeatherDisplay:10.37,2013-03-03 22:47:00,
2013-03-03 17:52:00,24.8,20.9,29.72,SSW,209,10.4,10.4,85,0.00,-SN,,0.01,0.0,WeatherDisplay:10.37,2013-03-03 22:52:00,
2013-03-03 17:57:00,24.6,20.7,29.73,West,260,9.0,9.0,85,0.00,-SN,,0.01,0.0,WeatherDisplay:10.37,2013-03-03 22:57:00,
2013-03-03 18:02:00,24.5,20.6,29.72,SW,233,10.4,10.4,85,0.00,-SN,,0.01,0.0,WeatherDisplay:10.37,2013-03-03 23:02:00,
2013-03-03 18:07:00,24.4,20.8,29.72,WSW,254,10.4,10.4,86,0.00,-SN,,0.01,0.0,WeatherDisplay:10.37,2013-03-03 23:07:00,
2013-03-03 18:12:00,24.4,20.8,29.72,SW,229,11.5,11.5,86,0.00,-SN,,0.01,0.0,WeatherDisplay:10.37,2013-03-03 23:12:00,
2013-03-03 18:17:00,24.3,21.0,29.73,West,273,9.2,9.2,87,0.00,-SN,,0.01,0.0,WeatherDisplay:10.37,2013-03-03 23:17:00,
2013-03-03 18:22:00,24.2,20.9,29.73,WSW,244,7.0,7.0,87,0.00,-SN,,0.01,0.0,WeatherDisplay:10.37,2013-03-03 23:22:00,
2013-03-03 18:27:00,24.0,20.7,29.73,SW,233,8.1,8.1,87,0.00,-SN,,0.01,0.0,WeatherDisplay:10.37,2013-03-03 23:27:00,
2013-03-03 18:32:00,24.0,20.7,29.73,SW,221,7.0,7.0,87,0.00,-SN,,0.01,0.0,WeatherDisplay:10.37,2013-03-03 23:32:00,
2013-03-03 18:37:00,24.0,20.7,29.73,WSW,251,10.4,10.4,87,0.00,-SN,,0.01,0.0,WeatherDisplay:10.37,2013-03-03 23:37:00,
2013-03-03 18:42:00,24.0,20.7,29.73,SW,229,6.9,6.9,87,0.00,-SN,,0.01,0.0,WeatherDisplay:10.37,2013-03-03 23:42:00,
2013-03-03 18:47:00,23.9,20.6,29.73,SW,236,10.4,10.4,87,0.00,-SN,,0.01,0.0,WeatherDisplay:10.37,2013-03-03 23:47:00,
2013-03-03 18:52:00,23.9,20.6,29.73,WSW,252,11.5,11.5,87,0.00,-SN,,0.01,0.0,WeatherDisplay:10.37,2013-03-03 23:52:00,
2013-03-03 18:57:00,23.8,20.5,29.73,West,272,10.4,10.4,87,0.00,-SN,,0.01,0.0,WeatherDisplay:10.37,2013-03-03 23:57:00,
2013-03-03 19:02:00,23.7,20.4,29.73,SW,234,10.4,10.4,87,0.00,-SN,,0.01,0.0,WeatherDisplay:10.37,2013-03-04 00:02:00,
2013-03-03 19:07:00,23.7,20.4,29.73,WSW,246,9.0,9.0,87,0.00,-SN,,0.01,0.0,WeatherDisplay:10.37,2013-03-04 00:07:00,
2013-03-03 19:12:00,23.6,20.6,29.73,SW,226,11.5,11.5,88,0.00,-SN,,0.01,0.0,WeatherDisplay:10.37,2013-03-04 00:12:00,
2013-03-03 19:17:00,23.5,20.5,29.73,WSW,250,11.5,11.5,88,0.00,-SN,,0.01,0.0,WeatherDisplay:10.37,2013-03-04 00:17:00,
2013-03-03 19:22:00,23.4,20.4,29.73,WSW,249,11.5,11.5,88,0.00,-SN,,0.01,0.0,WeatherDisplay:10.37,2013-03-04 00:22:00,
2013-03-03 19:27:00,23.3,20.3,29.73,WSW,240,11.5,11.5,88,0.00,-SN,,0.01,0.0,WeatherDisplay:10.37,2013-03-04 00:27:00,
2013-03-03 19:32:00,23.1,20.1,29.73,SW,230,12.7,12.7,88,0.00,-SN,,0.01,0.0,WeatherDisplay:10.37,2013-03-04 00:32:00,
2013-03-03 19:37:00,22.9,19.9,29.73,WSW,241,12.7,12.7,88,0.00,-SN,,0.01,0.0,WeatherDisplay:10.37,2013-03-04 00:37:00,
2013-03-03 19:42:00,22.8,19.8,29.73,WSW,241,11.5,11.5,88,0.00,-SN,,0.01,0.0,WeatherDisplay:10.37,2013-03-04 00:42:00,
2013-03-03 19:47:00,22.7,19.7,29.73,WSW,257,9.2,9.2,88,0.00,-SN,,0.01,0.0,WeatherDisplay:10.37,2013-03-04 00:47:00,
2013-03-03 19:52:00,22.7,19.7,29.73,WSW,241,10.4,10.4,88,0.00,-SN,,0.01,0.0,WeatherDisplay:10.37,2013-03-04 00:52:00,
2013-03-03 19:57:00,22.6,19.6,29.73,West,273,14.0,14.0,88,0.00,-SN,,0.01,0.0,WeatherDisplay:10.37,2013-03-04 00:57:00,
2013-03-03 20:02:00,22.6,19.6,29.73,WSW,250,11.5,11.5,88,0.00,-SN,,0.01,0.0,WeatherDisplay:10.37,2013-03-04 01:02:00,
2013-03-03 20:07:00,22.5,19.5,29.73,WSW,241,9.2,9.2,88,0.00,-SN,,0.01,0.0,WeatherDisplay:10.37,2013-03-04 01:07:00,
2013-03-03 20:12:00,22.5,19.7,29.73,WSW,244,10.4,10.4,89,0.00,-SN,,0.01,0.0,WeatherDisplay:10.37,2013-03-04 01:12:00,
2013-03-03 20:17:00,22.4,19.6,29.73,SW,229,8.1,8.1,89,0.00,-SN,,0.01,0.0,WeatherDisplay:10.37,2013-03-04 01:17:00,
2013-03-03 20:22:00,22.4,19.6,29.73,WSW,241,5.8,5.8,89,0.00,-SN,,0.01,0.0,WeatherDisplay:10.37,2013-03-04 01:22:00,
2013-03-03 20:27:00,22.3,19.3,29.73,WSW,246,8.1,8.1,88,0.00,-SN,,0.01,0.0,WeatherDisplay:10.37,2013-03-04 01:27:00,
2013-03-03 20:32:00,22.3,19.3,29.73,SW,231,9.2,9.2,88,0.00,-SN,,0.01,0.0,WeatherDisplay:10.37,2013-03-04 01:32:00,
2013-03-03 20:37:00,22.3,19.6,29.73,WSW,242,10.4,10.4,89,0.00,-SN,,0.01,0.0,WeatherDisplay:10.37,2013-03-04 01:37:00,
2013-03-03 20:42:00,22.3,19.6,29.73,SW,234,12.7,12.7,89,0.00,-SN,,0.01,0.0,WeatherDisplay:10.37,2013-03-04 01:42:00,
2013-03-03 20:47:00,22.3,19.6,29.73,WSW,248,9.0,9.0,89,0.00,-SN,,0.01,0.0,WeatherDisplay:10.37,2013-03-04 01:47:00,
2013-03-03 20:52:00,22.3,19.6,29.73,South,186,8.1,8.1,89,0.00,-SN,,0.01,0.0,WeatherDisplay:10.37,2013-03-04 01:52:00,
2013-03-03 20:57:00,22.3,19.3,29.73,West,262,11.5,11.5,88,0.00,-SN,,0.01,0.0,WeatherDisplay:10.37,2013-03-04 01:57:00,
2013-03-03 21:02:00,22.2,19.2,29.73,SSW,207,9.2,9.2,88,0.00,-SN,,0.01,0.0,WeatherDisplay:10.37,2013-03-04 02:02:00,
2013-03-03 21:07:00,22.2,19.2,29.73,SW,218,7.0,7.0,88,0.00,-SN,,0.01,0.0,WeatherDisplay:10.37,2013-03-04 02:07:00,
2013-03-03 21:12:00,22.1,19.1,29.73,WSW,244,11.5,11.5,88,0.00,-SN,,0.01,0.0,WeatherDisplay:10.37,2013-03-04 02:12:00,
2013-03-03 21:17:00,22.1,19.1,29.73,West,269,7.0,7.0,88,0.00,-SN,,0.01,0.0,WeatherDisplay:10.37,2013-03-04 02:17:00,
2013-03-03 21:22:00,22.0,19.0,29.73,WSW,252,8.1,8.1,88,0.00,-SN,,0.01,0.0,WeatherDisplay:10.37,2013-03-04 02:22:00,
2013-03-03 21:27:00,22.1,19.1,29.73,West,259,10.4,10.4,88,0.00,-SN,,0.01,0.0,WeatherDisplay:10.37,2013-03-04 02:27:00,
2013-03-03 21:32:00,22.1,19.1,29.73,SW,221,8.1,8.1,88,0.00,-SN,,0.01,0.0,WeatherDisplay:10.37,2013-03-04 02:32:00,
2013-03-03 21:37:00,22.1,19.1,29.73,SW,225,6.9,6.9,88,0.00,-SN,,0.01,0.0,WeatherDisplay:10.37,2013-03-04 02:37:00,
2013-03-03 21:42:00,22.2,19.2,29.73,SW,236,11.5,11.5,88,0.00,-SN,,0.01,0.0,WeatherDisplay:10.37,2013-03-04 02:42:00,
2013-03-03 21:47:00,22.2,19.5,29.72,WSW,242,9.0,9.0,89,0.00,-SN,,0.01,0.0,WeatherDisplay:10.37,2013-03-04 02:47:00,
2013-03-03 21:52:00,22.2,19.2,29.72,WSW,242,9.2,9.2,88,0.00,-SN,,0.01,0.0,WeatherDisplay:10.37,2013-03-04 02:52:00,
2013-03-03 21:57:00,22.2,19.2,29.72,WSW,255,8.1,8.1,88,0.00,-SN,,0.01,0.0,WeatherDisplay:10.37,2013-03-04 02:57:00,
2013-03-03 22:02:00,22.3,19.3,29.72,SW,234,11.0,11.0,88,0.00,-SN,,0.01,0.0,WeatherDisplay:10.37,2013-03-04 03:02:00,
2013-03-03 22:07:00,22.2,19.2,29.72,WSW,255,9.2,9.2,88,0.00,-SN,,0.01,0.0,WeatherDisplay:10.37,2013-03-04 03:07:00,
2013-03-03 22:12:00,22.3,19.3,29.72,SW,234,9.0,9.0,88,0.00,-SN,,0.01,0.0,WeatherDisplay:10.37,2013-03-04 03:12:00,
2013-03-03 22:17:00,22.2,19.2,29.72,WSW,244,12.7,12.7,88,0.00,OVC,,0.01,0.0,WeatherDisplay:10.37,2013-03-04 03:17:00,
2013-03-03 22:22:00,22.3,19.3,29.72,WSW,249,12.7,12.7,88,0.00,OVC,,0.01,0.0,WeatherDisplay:10.37,2013-03-04 03:22:00,
2013-03-03 22:27:00,22.3,19.3,29.72,WSW,242,6.9,6.9,88,0.00,OVC,,0.01,0.0,WeatherDisplay:10.37,2013-03-04 03:27:00,
2013-03-03 22:32:00,22.3,19.3,29.72,SW,232,9.2,9.2,88,0.00,OVC,,0.01,0.0,WeatherDisplay:10.37,2013-03-04 03:32:00,
2013-03-03 22:37:00,22.3,19.3,29.71,SW,216,11.5,11.5,88,0.00,OVC,,0.01,0.0,WeatherDisplay:10.37,2013-03-04 03:37:00,
2013-03-03 22:42:00,22.4,19.4,29.71,SW,221,6.9,6.9,88,0.00,OVC,,0.01,0.0,WeatherDisplay:10.37,2013-03-04 03:42:00,
2013-03-03 22:47:00,22.4,19.4,29.71,SW,228,9.2,9.2,88,0.00,OVC,,0.01,0.0,WeatherDisplay:10.37,2013-03-04 03:47:00,
2013-03-03 22:52:00,22.4,19.4,29.71,West,273,8.1,8.1,88,0.00,OVC,,0.01,0.0,WeatherDisplay:10.37,2013-03-04 03:52:00,
2013-03-03 22:57:00,22.5,19.5,29.71,SW,225,5.8,5.8,88,0.00,OVC,,0.01,0.0,WeatherDisplay:10.37,2013-03-04 03:57:00,
2013-03-03 23:02:00,22.6,19.6,29.71,SW,221,10.4,10.4,88,0.00,OVC,,0.01,0.0,WeatherDisplay:10.37,2013-03-04 04:02:00,
2013-03-03 23:07:00,22.6,19.6,29.71,WSW,242,6.9,6.9,88,0.00,OVC,,0.01,0.0,WeatherDisplay:10.37,2013-03-04 04:07:00,
2013-03-03 23:12:00,22.6,19.6,29.72,SW,227,5.8,5.8,88,0.00,OVC,,0.01,0.0,WeatherDisplay:10.37,2013-03-04 04:12:00,
2013-03-03 23:17:00,22.6,19.6,29.71,WSW,248,8.1,8.1,88,0.00,OVC,,0.01,0.0,WeatherDisplay:10.37,2013-03-04 04:17:00,
2013-03-03 23:22:00,22.6,19.6,29.71,SW,228,8.1,8.1,88,0.00,OVC,,0.01,0.0,WeatherDisplay:10.37,2013-03-04 04:22:00,
2013-03-03 23:27:00,22.6,19.6,29.71,West,261,5.8,5.8,88,0.00,OVC,,0.01,0.0,WeatherDisplay:10.37,2013-03-04 04:27:00,
2013-03-03 23:32:00,22.6,19.3,29.71,SW,236,9.2,9.2,87,0.00,OVC,,0.01,0.0,WeatherDisplay:10.37,2013-03-04 04:32:00,
2013-03-03 23:37:00,22.6,19.3,29.72,WSW,250,6.9,6.9,87,0.00,OVC,,0.01,0.0,WeatherDisplay:10.37,2013-03-04 04:37:00,
2013-03-03 23:42:00,22.6,19.3,29.71,West,271,6.9,6.9,87,0.00,OVC,,0.01,0.0,WeatherDisplay:10.37,2013-03-04 04:42:00,
2013-03-03 23:47:00,22.6,19.3,29.71,SW,229,10.4,10.4,87,0.00,OVC,,0.01,0.0,WeatherDisplay:10.37,2013-03-04 04:47:00,
2013-03-03 23:52:00,22.5,19.2,29.71,WSW,248,9.2,9.2,87,0.00,OVC,,0.01,0.0,WeatherDisplay:10.37,2013-03-04 04:52:00,
2013-03-03 23:57:00,22.5,19.2,29.71,WSW,239,5.8,5.8,87,0.00,OVC,,0.01,0.0,WeatherDisplay:10.37,2013-03-04 04:57:00,